Retour au catalogue

ONEWEB-0046

ActifCommunicationsPO
NORAD 45447·PAYLOAD·🇬🇧 United Kingdom

Lancé Mar 21, 2020 depuis Baikonur Cosmodrome

Loading…

Prochains Passages (prochaines 24 heures)

TLE

FraisSource: CelesTrak SupGP

Époque: Sep 14, 2026, 19:34 UTC

1 45447C 20020Z   26257.81543241 -.00000778  00000+0 -21977-2 0  2576
2 45447  87.8975   3.2496 0001978 108.5850 354.0626 13.11420307    15

Suivez ONEWEB-0046 en temps réel avec AllMySat

Download on the App Store